Regional Weather Roundup
Issued by NWS

Home | Current Version | Previous Version | Text Only | Print | Product List | Glossary On
Versions: 1 2 3 4 5 6 7 8 9 10 11 12 13 14 15 16 17 18 19 20 21 22 23 24 25 26 27 28 29 30 31 32 33 34 35 36 37 38 39 40 41 42 43 44 45 46 47 48 49 50
000
ASUS43 KMKX 122221
RWRWI

WISCONSIN REGIONAL WEATHER ROUNDUP
NATIONAL WEATHER SERVICE MILWAUKEE/SULLIVAN WI
400 PM CST FRI FEB 12 2016

NOTE: "FAIR" INDICATES FEW OR NO CLOUDS BELOW 12,000 FEET WITH NO
SIGNIFICANT WEATHER AND/OR OBSTRUCTIONS TO VISIBILITY.

WIZ001-002-006>008-014>016-023>028-122300-
NORTHWEST WISCONSIN

CITY           SKY/WX    TMP DP  RH WIND       PRES   REMARKS
SUPERIOR ARPT  SUNNY      5 -13  43 NW18      30.48R WCI -15
ASHLAND        MOSUNNY    4 -10  52 NW14G21   30.41R WCI -14
HAYWARD        SUNNY      4 -17  37 N7G22     30.39R WCI  -8
SIREN          SUNNY      6 -16  35 NW14G23   30.45R WCI -11
CUMBERLAND     SUNNY      5 -17  36 NW20G25   30.39R WCI -15
RICE LAKE      SUNNY      7 -14  37 NW13      30.42R WCI  -9
CHETEK         SUNNY      6 -13  41 MISG      30.40R
LADYSMITH      SUNNY      5 -13  42 NW21      30.38R WCI -16
EAU CLAIRE     SUNNY      8 -13  37 NW16G26   30.41R WCI -10
MENOMONIE      SUNNY     10 -13  35 NW18G25   30.43R WCI  -9
NEW RICHMOND   SUNNY      7 -11  43 NW17      30.45R WCI -11
OSCEOLA        SUNNY      8 -10  42 NW13G20   30.50R WCI  -8
$$

WIZ003>005-009-010-017-018-122300-
NORTH CENTRAL WISCONSIN

CITY           SKY/WX    TMP DP  RH WIND       PRES   REMARKS
MANITOWISH WTR CLOUDY    -2 -10  67 NW20G26   30.27R HAZE    WCI -25
ARBOR VITAE    PTSUNNY    1  -9  62 NW15      30.26R HAZE    WCI -18
WOODRUFF       PTSUNNY    1  -9  62 NW15      30.26R HAZE    WCI -18
RHINELANDER    CLOUDY     0 -14  51 NW13G29   30.23R WCI -18
EAGLE RIVER    LGT SNOW   0 -10  63 NW15G23   30.22R WCI -19
LAND O LAKES   PTSUNNY    0 -10  64 NW13G23   30.22R HAZE    WCI -18
PHILLIPS       PTSUNNY    1 -13  52 NW10G21   30.29R WCI -15
TOMAHAWK       CLOUDY     2 -13  51 NW16G24   30.27R WCI -18
MEDFORD        MOSUNNY    4 -11  51 NW16G26   30.27R WCI -15
MERRILL        PTSUNNY    5 -11  47 N18G25    30.26R WCI -15
$$

WIZ029-030-035-036-043>047-122300-
CENTRAL WISCONSIN

CITY           SKY/WX    TMP DP  RH WIND       PRES   REMARKS
WAUSAU         MOSUNNY    7 -10  46 NW17G26   30.25R WCI -12
MOSINEE        MOSUNNY    7  -9  47 NW18      30.26R WCI -12
MARSHFIELD     SUNNY      7 -10  46 NW25G32   30.28R WCI -15
STEVENS POINT  SUNNY      7 -12  41 NW14G25   30.27R WCI -10
WAUPACA        SUNNY     12 -12  33 NW16G28   30.27R WCI  -4
WAUTOMA        MOSUNNY   11 -10  38 N15G22    30.28R WCI  -5
WISC RAPIDS    SUNNY      8 -11  41 NW18G33   30.30R WCI -11
CAMP DOUGLAS   SUNNY     11  -7  44 NW17G28   30.31R WCI  -6
$$

WIZ011>013-019>022-031-037>040-048>050-122300-
NORTHEAST WISCONSIN

CITY           SKY/WX    TMP DP  RH WIND       PRES   REMARKS
ANTIGO         CLOUDY     1 -10  57 NW18G25   30.21R WCI -19
SHAWANO        MOSUNNY   10 -12  35 NW17G24   30.26R WCI  -7
OCONTO         PTSUNNY    8  -6  52 NW12G25   30.23R WCI  -7
STURGEON BAY   PTSUNNY    7  -6  56 N21G26    30.23R WCI -13
GREEN BAY      PTSUNNY   10  -6  48 NW18      30.23R WCI  -8
MANITOWOC      PTSUNNY   14  -3  47 NW18G28   30.20R WCI  -3
APPLETON       PTSUNNY   12 -11  34 NW18G28   30.20R WCI  -5
CLINTONVILLE   SUNNY     10 -13  34 N14G30    30.25R WCI  -5
OSHKOSH        MOSUNNY   12  -5  46 NW18G30   30.21R WCI  -6
$$

WIZ032>034-041-042-053>061-122300-
SOUTHWEST WISCONSIN

CITY           SKY/WX    TMP DP  RH WIND       PRES   REMARKS
LA CROSSE      SUNNY     12  -5  46 N23       30.39R WCI  -7
SPARTA         SUNNY     12  -7  42 NW18G26   30.36R WCI  -5
VIROQUA        SUNNY     11  -7  45 NW21G28   30.31R WCI  -8
BOSCOBEL       MIX PCPN  18  -3  39 NW14      30.35R WCI   4
PRAIRIE DU CHI SUNNY     15  -2  47 NW16G28   30.37R WCI  -1
PLATTEVILLE    SUNNY     16   2  55 NW16G22   30.29R WCI   0
$$

WIZ056-057-062-063-064-067-068-122300-
SOUTH CENTRAL WISCONSIN

CITY           SKY/WX    TMP DP  RH WIND       PRES   REMARKS
REEDSBURG      MOSUNNY   13  -6  43 NW21G29   30.29R WCI  -5
BARABOO/DELLS  SUNNY     13  -8  38 NW16G26   30.27R WCI  -3
LONE ROCK      SUNNY     16  -5  39 NW14G26   30.32R WCI   2
MINERAL POINT  SUNNY     18  -4  38 NW17G29   30.26R WCI   2
MADISON        MOSUNNY   14  -6  40 NW21G31   30.25R WCI  -4
MIDDLETON      SUNNY     17  -4  40 NW21G30   30.26R WCI   0
WATERTOWN      MOSUNNY   15  -4  42 NW16G26   30.22R WCI  -1
MONROE         SUNNY     19  -2  38 NW13G23   30.24R WCI   7
JANESVILLE     MOSUNNY   19  -2  38 NW25      30.23R WCI   2
$$

WIZ051-052-058>065-066-070>072-122300-
SOUTHEAST WISCONSIN

CITY           SKY/WX    TMP DP  RH WIND       PRES   REMARKS
MILWAUKEE      MOSUNNY   16  -2  45 N25G31    30.20R WCI  -3
WAUKESHA       MOSUNNY   12  -4  48 NW23G31   30.19R WCI  -7
MILWAUKEE/TIMM PTSUNNY   16   0  48 NW20G32   30.20R WCI  -1
RACINE         SUNNY     18  -4  37 NW16G28   30.20R WCI   3
BURLINGTON     MOSUNNY   15  -3  46 NW16G28   30.22R WCI  -1
KENOSHA        SUNNY     18  -2  41 NW21G30   30.19R WCI   1
FOND DU LAC    MOSUNNY   13  -5  44 NW23      30.22R WCI  -6
SHEBOYGAN      PTSUNNY   13  -4  46 NW20G30   30.20R WCI  -5
WEST BEND      CLOUDY    14  -2  48 NW18G28   30.20R WCI  -3
JUNEAU         SUNNY     11  -5  47 NW16G28   30.24R WCI  -5
$$

LSZ147-162-122300-
LAKE SUPERIOR

STATION/POSITION TIME  TEMP    WIND        PRES    WAVE
                       AIR SEA DIR/SP/G            HT/PER
                 (UTC) (F)     (DEG/KT/KT) (MB)    (FT/S)
DEVILS ISLAND    2200    3     310/ 17/ 23 1031.9R
SAXON HARBOR     2100    3                 1028.8R
$$

LMZ867-665-643>646-122300-
LAKE MICHIGAN

STATION/POSITION TIME  TEMP    WIND        PRES    WAVE
                       AIR SEA DIR/SP/G            HT/PER
                 (UTC) (F)     (DEG/KT/KT) (MB)    (FT/S)
CHAMBERS ISLAND  2100   10     310/ 26/ 32 1021.0R
SISTER BAY       2119    9     340/ 29/ 37   N/A
ALGOMA LAKESHORE 2141          330/ 20/ 29   N/A
KEWAUNEE LAKESHO 2100   12     330/ 15/ 21 1020.1R
SHEBOYGAN LAKESH 2200   14     320/ 17/ 20 1024.3R
PORT WASHINGTON  2100   16     310/ 15/ 26 1022.0
MILWAUKEE LAKESH 2210   15     320/ 16/ 24   N/A
KENOSHA   LAKESH 2200   18     320/ 25/ 35 1022.4R
$$

TC  - TEMPERATURE IN CELSIUS
VSB - VISIBILITY IN STATUTE MILES
WCI - WIND CHILL INDEX
HX  - HEAT INDEX




USA.gov is the U.S. government's official web portal to all federal, state and local government web resources and services.